When you browse on this site, cookies collect data to enhance your experience and personalize the content and advertising you see.
Visit our Privacy Policy to learn more. By continuing to use the site, you agree to this use of cookies and data.
  • In Latvia
  • List of Countries
  • For 7 days
  • Water Temperature
  • Satellite Maps
  • Weather Map
  • Weather Widgets
  • user-avatar
    Login

    Hourly Weather Mloty

    Today, 21 February, Thursday

    Time Temperature Precipitation Wind Pressure Humidity
    00:00 +2°C° 0 mm 1 mps 720 mmHg 91%
    01:00 +1°C° 0 mm 1 mps 720 mmHg 92%
    02:00 +1°C° 0 mm 1 mps 720 mmHg 93%
    03:00 +1°C° 0 mm 1 mps 720 mmHg 94%
    04:00 +1°C° 0 mm 1 mps 720 mmHg 94%
    05:00 +1°C° 0 mm 1 mps 720 mmHg 95%
    06:00 +1°C° 0 mm 1 mps 720 mmHg 95%
    07:00 +1°C° 0 mm 1 mps 720 mmHg 96%
    08:00 +1°C° 0 mm 2 mps 720 mmHg 93%
    09:00 +2°C° 0 mm 2 mps 720 mmHg 90%
    10:00 +3°C° 0 mm 2 mps 721 mmHg 87%
    11:00 +4°C° 0.1 mm 2 mps 721 mmHg 85%
    12:00 +3°C° 0.1 mm 3 mps 720 mmHg 82%
    13:00 +4°C° 0.1 mm 3 mps 720 mmHg 80%
    14:00 +4°C° 1 mm 3 mps 720 mmHg 83%
    15:00 +3°C° 1 mm 3 mps 720 mmHg 86%
    16:00 +2°C° 1 mm 3 mps 719 mmHg 89%
    17:00 +3°C° 0.2 mm 2 mps 719 mmHg 91%
    18:00 +3°C° 0.2 mm 2 mps 719 mmHg 92%
    19:00 +2°C° 0.2 mm 2 mps 719 mmHg 93%
    20:00 +2°C° 0.3 mm 2 mps 719 mmHg 94%
    21:00 +2°C° 0.3 mm 2 mps 719 mmHg 94%
    22:00 +3°C° 0.3 mm 2 mps 719 mmHg 94%
    23:00 +3°C° 0.8 mm 2 mps 719 mmHg 95%

    Tomorrow, 22 February, Friday

    Time Temperature Precipitation Wind Pressure Humidity
    00:00 +3°C° 0.8 mm 2 mps 719 mmHg 96%
    01:00 +3°C° 0.8 mm 2 mps 718 mmHg 97%
    02:00 +3°C° 0.9 mm 2 mps 718 mmHg 97%
    03:00 +3°C° 0.9 mm 2 mps 718 mmHg 97%
    04:00 +3°C° 0.9 mm 2 mps 718 mmHg 97%
    05:00 +3°C° 0.8 mm 2 mps 718 mmHg 97%
    06:00 +3°C° 0.8 mm 3 mps 719 mmHg 97%
    07:00 +3°C° 0.8 mm 4 mps 720 mmHg 96%
    08:00 +1°C° 0.2 mm 4 mps 721 mmHg 94%
    09:00 0°C° 0.2 mm 5 mps 722 mmHg 91%
    10:00 -2°C° 0.2 mm 6 mps 722 mmHg 88%
    11:00 -2°C° 0 mm 6 mps 723 mmHg 85%
    12:00 -2°C° 0 mm 6 mps 724 mmHg 82%
    13:00 -2°C° 0 mm 6 mps 725 mmHg 79%
    14:00 -2°C° 0 mm 5 mps 725 mmHg 76%
    15:00 -2°C° 0 mm 5 mps 726 mmHg 73%
    16:00 -2°C° 0 mm 5 mps 726 mmHg 70%
    17:00 -4°C° 0 mm 5 mps 727 mmHg 71%
    18:00 -4°C° 0 mm 4 mps 727 mmHg 72%
    19:00 -5°C° 0 mm 4 mps 728 mmHg 73%
    20:00 -5°C° 0 mm 3 mps 728 mmHg 71%
    21:00 -6°C° 0 mm 3 mps 729 mmHg 70%
    22:00 -6°C° 0 mm 3 mps 729 mmHg 69%
    23:00 -6°C° 0 mm 3 mps 729 mmHg 67%

    Day after tomorrow, 23 February, Saturday

    Time Temperature Precipitation Wind Pressure Humidity
    00:00 -6°C° 0 mm 3 mps 730 mmHg 66%
    01:00 -6°C° 0 mm 2 mps 730 mmHg 64%
    02:00 -6°C° 0 mm 2 mps 730 mmHg 64%
    03:00 -6°C° 0 mm 2 mps 730 mmHg 63%
    04:00 -4°C° 0 mm 1 mps 730 mmHg 62%
    05:00 -4°C° 0 mm 1 mps 730 mmHg 62%
    06:00 -4°C° 0 mm 1 mps 730 mmHg 62%
    07:00 -4°C° 0 mm 1 mps 730 mmHg 61%
    08:00 -3°C° 0 mm 1 mps 731 mmHg 55%
    09:00 -4°C° 0 mm 2 mps 731 mmHg 48%
    10:00 -3°C° 0 mm 2 mps 731 mmHg 41%
    11:00 -2°C° 0 mm 2 mps 731 mmHg 38%
    12:00 +1°C° 0 mm 1 mps 731 mmHg 34%
    13:00 +2°C° 0 mm 1 mps 731 mmHg 31%
    14:00 +2°C° 0 mm 1 mps 731 mmHg 33%
    15:00 +1°C° 0 mm 1 mps 731 mmHg 35%
    16:00 +1°C° 0 mm 1 mps 731 mmHg 37%
    17:00 0°C° 0 mm 1 mps 730 mmHg 41%
    18:00 -1°C° 0 mm 1 mps 730 mmHg 46%
    19:00 -2°C° 0 mm 1 mps 730 mmHg 50%
    20:00 -2°C° 0 mm 1 mps 730 mmHg 49%
    21:00 -2°C° 0 mm 1 mps 730 mmHg 48%
    22:00 -2°C° 0 mm 1 mps 730 mmHg 47%
    23:00 -3°C° 0 mm 0 mps 730 mmHg 45%

    24 February, Sunday

    Time Temperature Precipitation Wind Pressure Humidity
    00:00 -3°C° 0 mm 0 mps 730 mmHg 44%
    01:00 -3°C° 0 mm 0 mps 730 mmHg 42%
    02:00 -3°C° 0 mm 0 mps 730 mmHg 41%
    03:00 -3°C° 0 mm 0 mps 729 mmHg 40%
    04:00 -3°C° 0 mm 0 mps 729 mmHg 39%
    05:00 -3°C° 0 mm 0 mps 729 mmHg 40%
    06:00 -3°C° 0 mm 0 mps 729 mmHg 40%
    07:00 -3°C° 0 mm 0 mps 729 mmHg 41%
    08:00 0°C° 0 mm 1 mps 729 mmHg 39%
    09:00 +2°C° 0 mm 1 mps 729 mmHg 38%
    10:00 +3°C° 0 mm 1 mps 729 mmHg 36%
    11:00 +4°C° 0 mm 1 mps 729 mmHg 38%
    12:00 +5°C° 0 mm 1 mps 729 mmHg 41%
    13:00 +6°C° 0 mm 2 mps 729 mmHg 43%
    14:00 +6°C° 0 mm 1 mps 728 mmHg 49%
    15:00 +6°C° 0 mm 1 mps 728 mmHg 55%
    16:00 +5°C° 0 mm 1 mps 728 mmHg 61%
    17:00 +4°C° 0 mm 1 mps 727 mmHg 65%
    18:00 +3°C° 0 mm 1 mps 727 mmHg 69%
    19:00 +2°C° 0 mm 1 mps 727 mmHg 73%
    20:00 +1°C° 0 mm 1 mps 727 mmHg 73%
    21:00 +1°C° 0 mm 1 mps 727 mmHg 74%
    22:00 +1°C° 0 mm 1 mps 727 mmHg 75%
    23:00 +1°C° 0 mm 1 mps 726 mmHg 75%

    25 February, Monday

    Time Temperature Precipitation Wind Pressure Humidity
    00:00 +2°C° 0 mm 1 mps 726 mmHg 76%
    01:00 +2°C° 0 mm 1 mps 726 mmHg 76%
    02:00 +2°C° 0 mm 1 mps 726 mmHg 79%
    03:00 +1°C° 0 mm 1 mps 726 mmHg 82%
    04:00 -1°C° 0 mm 2 mps 726 mmHg 85%
    05:00 +1°C° 0 mm 2 mps 726 mmHg 89%
    06:00 +1°C° 0 mm 2 mps 726 mmHg 92%
    07:00 +1°C° 0 mm 2 mps 727 mmHg 95%
    08:00 +1°C° 0 mm 3 mps 727 mmHg 94%
    09:00 +1°C° 0 mm 3 mps 728 mmHg 94%
    10:00 +1°C° 0 mm 3 mps 728 mmHg 93%
    11:00 +2°C° 0 mm 3 mps 728 mmHg 87%
    12:00 +3°C° 0 mm 3 mps 729 mmHg 81%
    13:00 +3°C° 0 mm 3 mps 729 mmHg 76%
    14:00 +3°C° 0 mm 3 mps 729 mmHg 74%
    15:00 +3°C° 0 mm 3 mps 729 mmHg 73%
    16:00 +3°C° 0 mm 3 mps 728 mmHg 71%
    17:00 +2°C° 0 mm 3 mps 728 mmHg 76%
    18:00 +2°C° 0 mm 2 mps 728 mmHg 81%
    19:00 -1°C° 0 mm 2 mps 728 mmHg 86%
    20:00 +1°C° 0 mm 1 mps 728 mmHg 86%
    21:00 +1°C° 0 mm 1 mps 728 mmHg 86%
    22:00 +1°C° 0 mm 1 mps 728 mmHg 85%
    23:00 +1°C° 0 mm 1 mps 728 mmHg 84%

    26 February, Tuesday

    Time Temperature Precipitation Wind Pressure Humidity
    00:00 +1°C° 0 mm 1 mps 728 mmHg 82%
    01:00 +1°C° 0 mm 1 mps 727 mmHg 80%
    02:00 +1°C° 0 mm 1 mps 727 mmHg 80%
    03:00 +1°C° 0 mm 1 mps 726 mmHg 80%
    04:00 +1°C° 0 mm 1 mps 726 mmHg 80%
    05:00 0°C° 0 mm 1 mps 725 mmHg 82%
    06:00 0°C° 0 mm 1 mps 725 mmHg 84%
    07:00 0°C° 0 mm 1 mps 725 mmHg 86%
    08:00 +2°C° 0 mm 1 mps 725 mmHg 78%
    09:00 +4°C° 0 mm 1 mps 725 mmHg 70%
    10:00 +5°C° 0 mm 1 mps 724 mmHg 62%
    11:00 +6°C° 0 mm 2 mps 724 mmHg 59%
    12:00 +7°C° 0 mm 2 mps 724 mmHg 56%
    13:00 +8°C° 0 mm 2 mps 723 mmHg 53%
    14:00 +8°C° 0 mm 2 mps 723 mmHg 57%
    15:00 +8°C° 0 mm 2 mps 722 mmHg 61%
    16:00 +7°C° 0 mm 2 mps 722 mmHg 65%
    17:00 +6°C° 0 mm 2 mps 722 mmHg 70%
    18:00 +5°C° 0 mm 2 mps 721 mmHg 75%
    19:00 +4°C° 0 mm 1 mps 721 mmHg 80%
    20:00 +4°C° 0 mm 1 mps 721 mmHg 81%
    21:00 +4°C° 0 mm 1 mps 721 mmHg 82%
    22:00 +3°C° 0 mm 1 mps 721 mmHg 83%
    23:00 +3°C° 0 mm 1 mps 721 mmHg 84%
    Show more